Hourly Weather Lukashivka

Today, 15 May, Saturday

Time Temperature Precipitation Wind Pressure Humidity
00:00 +10°C° 0 mm 2 mps 730 mmHg 90%
01:00 +10°C° 0 mm 2 mps 730 mmHg 90%
02:00 +9°C° 0 mm 2 mps 730 mmHg 90%
03:00 +9°C° 0 mm 2 mps 730 mmHg 89%
04:00 +9°C° 0 mm 2 mps 730 mmHg 88%
05:00 +9°C° 0 mm 2 mps 730 mmHg 86%
06:00 +10°C° 0 mm 2 mps 731 mmHg 86%
07:00 +10°C° 0 mm 2 mps 731 mmHg 87%
08:00 +12°C° 0 mm 2 mps 731 mmHg 87%
09:00 +11°C° 0 mm 3 mps 732 mmHg 84%
10:00 +12°C° 0 mm 3 mps 732 mmHg 82%
11:00 +12°C° 0 mm 4 mps 732 mmHg 80%
12:00 +13°C° 0 mm 4 mps 732 mmHg 78%
13:00 +14°C° 0 mm 4 mps 732 mmHg 76%
14:00 +15°C° 0 mm 4 mps 732 mmHg 74%
15:00 +16°C° 0 mm 3 mps 732 mmHg 71%
16:00 +17°C° 0 mm 3 mps 732 mmHg 69%
17:00 +17°C° 0 mm 3 mps 732 mmHg 66%
18:00 +16°C° 0 mm 2 mps 732 mmHg 71%
19:00 +14°C° 0 mm 1 mps 732 mmHg 77%
20:00 +13°C° 0 mm 1 mps 732 mmHg 82%
21:00 +12°C° 0 mm 1 mps 732 mmHg 83%
22:00 +12°C° 0 mm 1 mps 732 mmHg 85%
23:00 +11°C° 0 mm 1 mps 732 mmHg 86%

Tomorrow, 16 May, Sunday

Time Temperature Precipitation Wind Pressure Humidity
00:00 +11°C° 0 mm 1 mps 732 mmHg 87%
01:00 +10°C° 0 mm 2 mps 732 mmHg 88%
02:00 +9°C° 0 mm 2 mps 732 mmHg 89%
03:00 +9°C° 0 mm 2 mps 732 mmHg 90%
04:00 +9°C° 0 mm 3 mps 732 mmHg 90%
05:00 +9°C° 0 mm 3 mps 732 mmHg 91%
06:00 +11°C° 0 mm 3 mps 732 mmHg 84%
07:00 +13°C° 0 mm 4 mps 732 mmHg 78%
08:00 +16°C° 0 mm 5 mps 732 mmHg 72%
09:00 +17°C° 0 mm 5 mps 732 mmHg 67%
10:00 +20°C° 0 mm 5 mps 732 mmHg 62%
11:00 +21°C° 0 mm 5 mps 732 mmHg 57%
12:00 +21°C° 0 mm 5 mps 732 mmHg 55%
13:00 +22°C° 0 mm 5 mps 732 mmHg 53%
14:00 +22°C° 0 mm 6 mps 731 mmHg 51%
15:00 +22°C° 0 mm 5 mps 731 mmHg 54%
16:00 +21°C° 0 mm 5 mps 731 mmHg 57%
17:00 +21°C° 0 mm 4 mps 730 mmHg 60%
18:00 +19°C° 0.1 mm 4 mps 730 mmHg 65%
19:00 +18°C° 0.1 mm 3 mps 730 mmHg 71%
20:00 +16°C° 0.1 mm 3 mps 730 mmHg 76%
21:00 +16°C° 0 mm 3 mps 730 mmHg 76%
22:00 +14°C° 0 mm 3 mps 729 mmHg 77%
23:00 +15°C° 0 mm 2 mps 729 mmHg 77%

Day after tomorrow, 17 May, Monday

Time Temperature Precipitation Wind Pressure Humidity
00:00 +14°C° 0 mm 2 mps 729 mmHg 80%
01:00 +14°C° 0 mm 2 mps 729 mmHg 83%
02:00 +13°C° 0 mm 2 mps 729 mmHg 86%
03:00 +13°C° 0 mm 2 mps 729 mmHg 87%
04:00 +13°C° 0 mm 2 mps 729 mmHg 89%
05:00 +12°C° 0 mm 3 mps 728 mmHg 90%
06:00 +13°C° 0 mm 3 mps 729 mmHg 86%
07:00 +14°C° 0 mm 3 mps 729 mmHg 83%
08:00 +16°C° 0 mm 3 mps 729 mmHg 79%
09:00 +17°C° 0.5 mm 3 mps 728 mmHg 75%
10:00 +18°C° 0.5 mm 3 mps 728 mmHg 71%
11:00 +19°C° 0.5 mm 3 mps 728 mmHg 67%
12:00 +20°C° 0.7 mm 3 mps 728 mmHg 66%
13:00 +20°C° 0.7 mm 3 mps 728 mmHg 64%
14:00 +20°C° 0.7 mm 2 mps 728 mmHg 63%
15:00 +20°C° 0.5 mm 2 mps 727 mmHg 64%
16:00 +19°C° 0.5 mm 2 mps 727 mmHg 66%
17:00 +19°C° 0.5 mm 2 mps 727 mmHg 67%
18:00 +18°C° 0.2 mm 2 mps 727 mmHg 72%
19:00 +16°C° 0.2 mm 1 mps 727 mmHg 77%
20:00 +15°C° 0.2 mm 1 mps 727 mmHg 82%
21:00 +14°C° 0 mm 1 mps 727 mmHg 83%
22:00 +14°C° 0 mm 1 mps 727 mmHg 84%
23:00 +13°C° 0 mm 1 mps 727 mmHg 84%

18 May, Tuesday

Time Temperature Precipitation Wind Pressure Humidity
00:00 +13°C° 0.1 mm 1 mps 727 mmHg 86%
01:00 +13°C° 0.1 mm 1 mps 727 mmHg 88%
02:00 +13°C° 0.1 mm 2 mps 726 mmHg 90%
03:00 +12°C° 0.3 mm 3 mps 727 mmHg 92%
04:00 +12°C° 0.3 mm 4 mps 727 mmHg 93%
05:00 +12°C° 0.3 mm 5 mps 727 mmHg 95%
06:00 +12°C° 0 mm 5 mps 727 mmHg 92%
07:00 +12°C° 0 mm 5 mps 728 mmHg 89%
08:00 +13°C° 0 mm 5 mps 728 mmHg 86%
09:00 +14°C° 0.1 mm 6 mps 729 mmHg 79%
10:00 +15°C° 0.1 mm 6 mps 729 mmHg 73%
11:00 +16°C° 0.1 mm 7 mps 729 mmHg 66%
12:00 +16°C° 0.1 mm 7 mps 729 mmHg 64%
13:00 +17°C° 0.1 mm 6 mps 730 mmHg 62%
14:00 +17°C° 0.1 mm 6 mps 730 mmHg 59%
15:00 +17°C° 0 mm 5 mps 730 mmHg 60%
16:00 +17°C° 0 mm 5 mps 730 mmHg 60%
17:00 +18°C° 0 mm 4 mps 730 mmHg 60%
18:00 +15°C° 0 mm 4 mps 730 mmHg 66%
19:00 +14°C° 0 mm 3 mps 731 mmHg 72%
20:00 +13°C° 0 mm 2 mps 731 mmHg 78%
21:00 +11°C° 0.2 mm 3 mps 731 mmHg 81%
22:00 +11°C° 0.2 mm 3 mps 731 mmHg 84%
23:00 +11°C° 0.2 mm 4 mps 732 mmHg 87%

19 May, Wednesday

Time Temperature Precipitation Wind Pressure Humidity
00:00 +10°C° 1.5 mm 4 mps 732 mmHg 89%
01:00 +10°C° 1.5 mm 3 mps 732 mmHg 91%
02:00 +10°C° 1.5 mm 3 mps 732 mmHg 93%
03:00 +10°C° 0.6 mm 2 mps 732 mmHg 92%
04:00 +10°C° 0.6 mm 2 mps 732 mmHg 91%
05:00 +11°C° 0.6 mm 1 mps 732 mmHg 90%
06:00 +12°C° 0.1 mm 1 mps 732 mmHg 85%
07:00 +13°C° 0.1 mm 1 mps 732 mmHg 81%
08:00 +14°C° 0.1 mm 2 mps 733 mmHg 76%
09:00 +15°C° 0.3 mm 2 mps 733 mmHg 71%
10:00 +16°C° 0.3 mm 2 mps 733 mmHg 66%
11:00 +17°C° 0.3 mm 2 mps 733 mmHg 61%
12:00 +17°C° 0.2 mm 2 mps 733 mmHg 59%
13:00 +18°C° 0.2 mm 2 mps 732 mmHg 57%
14:00 +18°C° 0.2 mm 3 mps 732 mmHg 54%
15:00 +18°C° 0 mm 3 mps 732 mmHg 56%
16:00 +18°C° 0 mm 3 mps 732 mmHg 58%
17:00 +18°C° 0 mm 3 mps 732 mmHg 60%
18:00 +16°C° 0 mm 3 mps 732 mmHg 65%
19:00 +14°C° 0 mm 3 mps 732 mmHg 71%
20:00 +12°C° 0 mm 3 mps 732 mmHg 77%
21:00 +11°C° 0 mm 3 mps 732 mmHg 80%
22:00 +11°C° 0 mm 3 mps 732 mmHg 83%
23:00 +10°C° 0 mm 3 mps 732 mmHg 86%

20 May, Thursday

Time Temperature Precipitation Wind Pressure Humidity
00:00 +10°C° 0 mm 3 mps 732 mmHg 86%
01:00 +9°C° 0 mm 3 mps 732 mmHg 87%
02:00 +9°C° 0 mm 3 mps 732 mmHg 88%
03:00 +9°C° 0 mm 3 mps 732 mmHg 88%
04:00 +9°C° 0 mm 3 mps 732 mmHg 88%
05:00 +9°C° 0 mm 3 mps 732 mmHg 87%
06:00 +10°C° 0 mm 3 mps 733 mmHg 83%
07:00 +11°C° 0 mm 4 mps 733 mmHg 78%
08:00 +12°C° 0 mm 4 mps 733 mmHg 74%
09:00 +14°C° 0 mm 4 mps 733 mmHg 69%
10:00 +15°C° 0 mm 4 mps 733 mmHg 64%
11:00 +16°C° 0 mm 5 mps 733 mmHg 58%
12:00 +16°C° 0.1 mm 5 mps 733 mmHg 57%
13:00 +17°C° 0.1 mm 5 mps 732 mmHg 56%
14:00 +18°C° 0.1 mm 4 mps 732 mmHg 55%
15:00 +17°C° 0.1 mm 4 mps 732 mmHg 59%
16:00 +17°C° 0.1 mm 4 mps 732 mmHg 62%
17:00 +15°C° 0.1 mm 4 mps 732 mmHg 66%
18:00 +14°C° 0.2 mm 4 mps 732 mmHg 71%
19:00 +13°C° 0.2 mm 5 mps 733 mmHg 76%
20:00 +12°C° 0.2 mm 5 mps 733 mmHg 81%
21:00 +10°C° 0.1 mm 5 mps 733 mmHg 83%
22:00 +10°C° 0.1 mm 5 mps 733 mmHg 86%
23:00 +9°C° 0.1 mm 6 mps 733 mmHg 89%
Show more

We Need Your Consent

Meteoprog and our Service Providers may store and access personal data such as cookies, device identifiers or other similar technologies on your device and process such data to personalise content and ads, as well as provide social media features and to analyse the traffic.

  • Store and/or access information on your device

    Cookies, device identifiers or other information can be stored or accessed on your device for the purposes indicated above.

  • Personalised ads and content, ad and content measurement, audience insights, and products development

    Ads and content can be personalised based on a profile. More data can be added to better personalise ads and content. Ad and content performance can be measured. Insights about the audience who saw the ads and content can be derived. Such data can be used to develop or improve user’s experience, systems and software.

By clicking ‘I Agree’ you will allow the use of indicated cookies, device identifiers, web beacons or other similar technologies. Your settings can be changed in the browser on your device.

For certain purposes, legitimate interests may be relied on, rather than consent. You can read more about this in our Privacy and Cookie Policy.